"Pseudo-MPEC" for CEAJMN2

Created 2026 Mar 9 22:35:21 UT using Find_Orb

Click here for an explanation of pseudo-MPECs

 
 Astrometry: 
     CEAJMN2*1C2026 03 08.44245912 16 58.714+15 47 19.57   ~38BK 20.69GVNEOCPG96
     CEAJMN2 1C2026 03 08.44764512 16 56.834+15 45 21.38   ~38BK 20.43GVNEOCPG96
     CEAJMN2 1C2026 03 08.45283712 16 54.955+15 43 25.10   ~38BK 20.24GVNEOCPG96
     CEAJMN2 1C2026 03 08.45802812 16 53.036+15 41 26.81   ~38BK 19.93GVNEOCPG96
     CEAJMN2  C2026 03 08.47874112 16 45.220+15 33 33.55   ~38CK 20.1 GWNEOCPH01
     CEAJMN2  C2026 03 08.48148912 16 44.240+15 32 31.45   ~38CK 20.4 GWNEOCPH01
     CEAJMN2  C2026 03 08.49535512 16 39.332+15 27 18.59   ~38CK 20.0 GWNEOCPH01
     CEAJMN2  C2026 03 08.50134312 16 37.226+15 25 03.53   ~38CK 19.6 GWNEOCPH01
     CEAJMN2 1C2026 03 08.52205412 16 30.227+15 17 23.42   ~38Co 19.75GVNEOCPI52
     CEAJMN2 1C2026 03 08.52312112 16 29.885+15 16 58.69   ~38Co 20.30GVNEOCPI52
     CEAJMN2 1C2026 03 08.52418712 16 29.478+15 16 35.29   ~38Co 20.06GVNEOCPI52
     CEAJMN2 1C2026 03 08.52526312 16 29.118+15 16 11.64   ~38Co 20.00GVNEOCPI52
     CEAJMN2 KB2026 03 09.05122 12 13 55.27 +12 07 47.3    ~3925 20.2 GXNEOCPM45
     CEAJMN2 KB2026 03 09.05609 12 13 53.68 +12 06 06.4    ~3925 20.0 GXNEOCPM45
     CEAJMN2 KB2026 03 09.06089 12 13 52.11 +12 04 26.7    ~3925 20.3 GXNEOCPM45
     CEAJMN2 KC2026 03 09.08932 12 13 43.23 +11 54 39.4    ~394Z 20.0 GXNEOCPL04
     CEAJMN2 KC2026 03 09.11773 12 13 34.29 +11 44 54.8    ~394Z 19.8 GXNEOCPL04
     CEAJMN2 |C2026 03 09.18645012 13 23.130+11 24 41.90   ~395K 19.8 GVNEOCP807
     CEAJMN2 |C2026 03 09.19227012 13 21.240+11 22 44.60   ~395K 20.0 GVNEOCP807
     CEAJMN2 KC2026 03 09.19379112 13 22.48 +11 19 27.2    ~3955 20.0 GVNEOCPH21
     CEAJMN2 KC2026 03 09.19658812 13 21.59 +11 18 31.0    ~3955 20.1 GVNEOCPH21
     CEAJMN2 |C2026 03 09.19809012 13 19.290+11 20 47.70   ~395K 20.1 GVNEOCP807
     CEAJMN2 1C2026 03 09.37544512 12 27.068+10 19 25.54   ~399K 20.38GVNEOCPI52
     CEAJMN2 1C2026 03 09.37717912 12 26.485+10 18 51.30   ~399K 19.97GVNEOCPI52
     CEAJMN2 1C2026 03 09.37752212 12 26.363+10 18 44.68   ~399K 20.04GVNEOCPI52

Station data:
(807) Cerro Tololo Observatory, La Serena  (S30.169133 W70.805900)  Chile.
   Observer R. Holmes. 0.61-m f/6.5 astrograph + CCD.
(G96) Mt. Lemmon Survey  (N32.442729 W110.788720)  US/Arizona.  Observer E.
   J. Christensen. Measurers T. Beuden, V. F. Carvajal, D. Fay, J. B.
   Fazekas, D. C. Fuls, A. R. Gibbs, A. D. Grauer, H. Gröller, J. K. Hogan,
   R. A. Kowalski, S. M. Larson, G. J. Leonard, D. Rankin, R. L. Seaman, F.
   C. Shelly, K. W. Wierzchoś. 1.5-m reflector + 10K CCD.
(H01) Magdalena Ridge Observatory, Socorro  (N33.984833 W107.189333)  US/New
   Mexico.  Observers W. H. Ryan, E. V. Ryan. Measurer W. H. Ryan. 2.4-m
   f/8.9 reflector + CCD.
(H21) Astronomical Research Observatory, Westfield  (N39.483054 W87.968270)
   US/Illinois.  Observer R. Holmes. Measurers S. Foglia, L. Buzzi, T.
   Linder, R. Holmes. 0.40-m f/5.32 astrograph + CCD.
(I52) Steward Observatory, Mt. Lemmon Station  (N32.442570 W110.788920)
   US/Arizona. Measurers T. Beuden, V. F. Carvajal, D. Fay, J. B. Fazekas, D.
   C. Fuls, A. R. Gibbs, A. D. Grauer, H. Gröller, J. K. Hogan, R. A.
   Kowalski, S. M. Larson, G. J. Leonard, D. Rankin, R. L. Seaman, F. C.
   Shelly, K. W. Wierzchoś. 1.0-m prime focus + CCD.
(L04) ROASTERR-1 Observatory, Cluj-Napoca  (N46.820952 E23.596400)  Romania.
   Observer L. Hudin. 0.1-m f/9 refractor + CCD.
(M45) Starhopper Observatory, Sfantu Gheorghe  (N45.865494 E25.768890)
   Romania.  Observer F. Ursache. 0.41-m f/7.5 reflector + CMO.

Orbital elements:  CEAJMN2
   Perihelion 2026 Feb 3.249864 +/- 0.0168 TT =  5:59:48.2 (JD 2461074.749864)
Epoch 2026 Mar  9.0 TT = JDT 2461108.5   Earth MOID: 0.0483      AutoNEOCP
M   8.908532565 +/- 0.045           (J2000 ecliptic)
n   0.263955458 +/- 0.00125         Peri.  134.324187 +/- 0.021
a   2.406849588 +/- 0.00762         Node   351.485061 +/- 0.0014
e   0.60743625 +/- 0.00127          Incl.   14.138971 +/- 0.019
P   3.73399                H 25.54  G  0.15   U  8.3
q 0.944841893 +/- 0.000135    Q 3.868857284 +/- 0.0153
From 25 observations 2026 Mar. 8-9 (22.4 hr); mean residual 0".32
Residuals in arcseconds: 
260308 G96  .55-  .23+    260308 I52  .41+  .60-    260309 807  .33+  .27-    
260308 G96  .01-  .51-    260308 I52  .17-  .05-    260309 H21  .09+  .16-    
260308 G96  .46+  .75+    260308 I52  .02-  .47+    260309 H21  .14+  .07-    
260308 G96  .25+  .09-    260309 M45  .21+  .10+    260309 807  .01-  .22+    
260308 H01  .09+  .01-    260309 M45  .12+  .00     260309 I52  .60+  .03+    
260308 H01  .08+  .07-    260309 M45  .08-  .41-    260309 I52  .22+  .08-    
260308 H01  .02-  .14-    260309 L04  .65-  .64+    260309 I52  .05+  .05+    
260308 H01  .16-  .27-    260309 L04  .70-  .38+    
260308 I52  .04+  .16+    260309 807  .19-  .42-    

Ephemerides (geocentric):
Date (UTC) HH   RA             Dec           delta  r     elong  mag " sig PA
---- --------  ------------   ------------  ------ ------ -----  --- --------
2026 03 09 23  12 09 58.287   +07 17 39.48  .06422 1.0557 167.1 20.4 .205  54
2026 03 10 00  12 09 48.135   +07 05 13.26  .06443 1.0559 167.3 20.4 .220  53
2026 03 10 01  12 09 38.053   +06 52 51.88  .06464 1.0562 167.4 20.4 .236  52
2026 03 10 02  12 09 28.042   +06 40 35.33  .06485 1.0564 167.5 20.4 .252  51
2026 03 10 03  12 09 18.100   +06 28 23.56  .06507 1.0567 167.6 20.4 .268  50
2026 03 10 04  12 09 08.226   +06 16 16.56  .06528 1.0569 167.7 20.4 .284  49
2026 03 10 05  12 08 58.420   +06 04 14.31  .06550 1.0572 167.8 20.4 .301  48
2026 03 10 06  12 08 48.681   +05 52 16.77  .06571 1.0574 167.9 20.4 .317  48
2026 03 10 07  12 08 39.008   +05 40 23.92  .06593 1.0577 168.0 20.5 .334  47
2026 03 10 08  12 08 29.402   +05 28 35.74  .06614 1.0579 168.1 20.5 .351  46
2026 03 10 09  12 08 19.860   +05 16 52.20  .06636 1.0581 168.2 20.5 .369  46
2026 03 10 10  12 08 10.383   +05 05 13.27  .06658 1.0584 168.3 20.5 .386  45
2026 03 10 11  12 08 00.969   +04 53 38.92  .06680 1.0586 168.4 20.5 .404  45
2026 03 10 12  12 07 51.619   +04 42 09.14  .06702 1.0589 168.5 20.5 .422  44
2026 03 10 13  12 07 42.331   +04 30 43.89  .06724 1.0591 168.5 20.5 .440  44
2026 03 10 14  12 07 33.104   +04 19 23.15  .06747 1.0594 168.6 20.5 .458  43
2026 03 10 15  12 07 23.939   +04 08 06.89  .06769 1.0596 168.7 20.5 .476  43
2026 03 10 16  12 07 14.835   +03 56 55.08  .06792 1.0599 168.8 20.5 .494  42
2026 03 10 17  12 07 05.791   +03 45 47.70  .06814 1.0601 168.8 20.5 .513  42
2026 03 10 18  12 06 56.806   +03 34 44.71  .06837 1.0604 168.9 20.5 .532  42
2026 03 10 19  12 06 47.879   +03 23 46.10  .06859 1.0606 169.0 20.5 .551  41
2026 03 10 20  12 06 39.011   +03 12 51.84  .06882 1.0609 169.0 20.5 .570  41
2026 03 10 21  12 06 30.201   +03 02 01.90  .06905 1.0611 169.1 20.5 .589  41
2026 03 10 22  12 06 21.448   +02 51 16.24  .06928 1.0614 169.2 20.5 .608  40
2026 03 10 23  12 06 12.751   +02 40 34.85  .06951 1.0616 169.2 20.5 .627  40
2026 03 11 00  12 06 04.110   +02 29 57.70  .06974 1.0619 169.3 20.5 .647  40
2026 03 11 01  12 05 55.525   +02 19 24.76  .06997 1.0621 169.3 20.5 .666  39
2026 03 11 02  12 05 46.994   +02 08 56.00  .07020 1.0624 169.4 20.5 .686  39
2026 03 11 03  12 05 38.518   +01 58 31.40  .07043 1.0626 169.4 20.6 .705  39
2026 03 11 04  12 05 30.096   +01 48 10.93  .07067 1.0629 169.4 20.6 .725  39
2026 03 11 05  12 05 21.727   +01 37 54.56  .07090 1.0631 169.5 20.6 .745  38
2026 03 11 06  12 05 13.411   +01 27 42.27  .07113 1.0634 169.5 20.6 .765  38
2026 03 11 07  12 05 05.147   +01 17 34.03  .07137 1.0636 169.6 20.6 .785  38
2026 03 11 08  12 04 56.935   +01 07 29.80  .07161 1.0639 169.6 20.6 .805  38
2026 03 11 09  12 04 48.775   +00 57 29.57  .07184 1.0641 169.6 20.6 .825  38
2026 03 11 10  12 04 40.665   +00 47 33.31  .07208 1.0644 169.6 20.6 .845  37
2026 03 11 11  12 04 32.606   +00 37 40.99  .07232 1.0646 169.7 20.6 .866  37
2026 03 11 12  12 04 24.596   +00 27 52.58  .07256 1.0649 169.7 20.6 .886  37
2026 03 11 13  12 04 16.636   +00 18 08.07  .07280 1.0651 169.7 20.6 .906  37
2026 03 11 14  12 04 08.725   +00 08 27.41  .07304 1.0654 169.7 20.6 .927  37
2026 03 11 15  12 04 00.863   -00 01 09.41  .07328 1.0656 169.7 20.6 .947  36
2026 03 11 16  12 03 53.048   -00 10 42.43  .07352 1.0659 169.8 20.6 .968  36
2026 03 11 17  12 03 45.282   -00 20 11.66  .07376 1.0661 169.8 20.6 .988  36
2026 03 11 18  12 03 37.562   -00 29 37.14  .07401 1.0664 169.8 20.7 1.01  36
2026 03 11 19  12 03 29.890   -00 38 58.88  .07425 1.0666 169.8 20.7 1.03  36
2026 03 11 20  12 03 22.264   -00 48 16.93  .07449 1.0669 169.8 20.7 1.05  36
2026 03 11 21  12 03 14.683   -00 57 31.29  .07474 1.0671 169.8 20.7 1.07  35
2026 03 11 22  12 03 07.149   -01 06 42.01  .07498 1.0674 169.8 20.7 1.09  35